Year,Month,Day,Hour,Minute,Value (Times are PST for temperature in C)
2021,06,26,00,00,22.10
2021,06,26,00,01,22.10
2021,06,26,00,02,22.10
2021,06,26,00,03,22.00
2021,06,26,00,04,22.00
2021,06,26,00,05,22.00
2021,06,26,00,06,22.00
2021,06,26,00,07,22.00
2021,06,26,00,08,21.90
2021,06,26,00,09,21.90
2021,06,26,00,10,21.90
2021,06,26,00,11,21.90
2021,06,26,00,12,21.90
2021,06,26,00,13,21.90
2021,06,26,00,14,21.80
2021,06,26,00,15,21.80
2021,06,26,00,16,21.80
2021,06,26,00,17,21.80
2021,06,26,00,18,21.80
2021,06,26,00,19,21.70
2021,06,26,00,20,21.70
2021,06,26,00,21,21.70
2021,06,26,00,22,21.70
2021,06,26,00,23,21.70
2021,06,26,00,24,21.60
2021,06,26,00,25,21.60
2021,06,26,00,26,21.60
2021,06,26,00,27,21.60
2021,06,26,00,28,21.60
2021,06,26,00,29,21.50
2021,06,26,00,30,21.50
2021,06,26,00,31,21.50
2021,06,26,00,32,21.50
2021,06,26,00,33,21.40
2021,06,26,00,34,21.40
2021,06,26,00,35,21.40
2021,06,26,00,36,21.30
2021,06,26,00,37,21.30
2021,06,26,00,38,21.30
2021,06,26,00,39,21.30
2021,06,26,00,40,21.30
2021,06,26,00,41,21.20
2021,06,26,00,42,21.20
2021,06,26,00,43,21.20
2021,06,26,00,44,21.10
2021,06,26,00,45,21.10
2021,06,26,00,46,21.10
2021,06,26,00,47,21.00
2021,06,26,00,48,21.00
2021,06,26,00,49,20.90
2021,06,26,00,50,20.90
2021,06,26,00,51,20.90
2021,06,26,00,52,20.80
2021,06,26,00,53,20.80
2021,06,26,00,54,20.70
2021,06,26,00,55,20.70
2021,06,26,00,56,20.70
2021,06,26,00,57,20.60
2021,06,26,00,58,20.60
2021,06,26,00,59,20.50
2021,06,26,01,00,20.40
2021,06,26,01,01,20.40
2021,06,26,01,02,20.40
2021,06,26,01,03,20.30
2021,06,26,01,04,20.30
2021,06,26,01,05,20.20
2021,06,26,01,06,20.20
2021,06,26,01,07,20.10
2021,06,26,01,08,20.10
2021,06,26,01,09,20.00
2021,06,26,01,10,20.00
2021,06,26,01,11,19.90
2021,06,26,01,12,19.90
2021,06,26,01,13,19.80
2021,06,26,01,14,19.80
2021,06,26,01,15,19.80
2021,06,26,01,16,19.80
2021,06,26,01,17,19.70
2021,06,26,01,18,19.70
2021,06,26,01,19,19.60
2021,06,26,01,20,19.60
2021,06,26,01,21,19.50
2021,06,26,01,22,19.50
2021,06,26,01,23,19.40
2021,06,26,01,24,19.40
2021,06,26,01,25,19.30
2021,06,26,01,26,19.30
2021,06,26,01,27,19.30
2021,06,26,01,28,19.20
2021,06,26,01,29,19.20
2021,06,26,01,30,19.10
2021,06,26,01,31,19.10
2021,06,26,01,32,19.10
2021,06,26,01,33,19.00
2021,06,26,01,34,18.90
2021,06,26,01,35,18.90
2021,06,26,01,36,18.80
2021,06,26,01,37,18.70
2021,06,26,01,38,18.70
2021,06,26,01,39,18.60
2021,06,26,01,40,18.50
2021,06,26,01,41,18.40
2021,06,26,01,42,18.40
2021,06,26,01,43,18.30
2021,06,26,01,44,18.20
2021,06,26,01,45,18.10
2021,06,26,01,46,18.00
2021,06,26,01,47,17.90
2021,06,26,01,48,17.90
2021,06,26,01,49,17.80
2021,06,26,01,50,17.70
2021,06,26,01,51,17.70
2021,06,26,01,52,17.60
2021,06,26,01,53,17.60
2021,06,26,01,54,17.50
2021,06,26,01,55,17.40
2021,06,26,01,56,17.30
2021,06,26,01,57,17.30
2021,06,26,01,58,17.30
2021,06,26,01,59,17.20
2021,06,26,02,00,17.10
2021,06,26,02,01,17.10
2021,06,26,02,02,17.00
2021,06,26,02,03,17.00
2021,06,26,02,04,16.90
2021,06,26,02,05,16.90
2021,06,26,02,06,16.90
2021,06,26,02,07,16.80
2021,06,26,02,08,16.80
2021,06,26,02,09,16.80
2021,06,26,02,10,16.80
2021,06,26,02,11,16.70
2021,06,26,02,12,16.70
2021,06,26,02,13,16.70
2021,06,26,02,14,16.70
2021,06,26,02,15,16.60
2021,06,26,02,16,16.60
2021,06,26,02,17,16.60
2021,06,26,02,18,16.60
2021,06,26,02,19,16.60
2021,06,26,02,20,16.60
2021,06,26,02,21,16.50
2021,06,26,02,22,16.50
2021,06,26,02,23,16.50
2021,06,26,02,24,16.50
2021,06,26,02,25,16.50
2021,06,26,02,26,16.50
2021,06,26,02,27,16.50
2021,06,26,02,28,16.50
2021,06,26,02,29,16.50
2021,06,26,02,30,16.40
2021,06,26,02,31,16.40
2021,06,26,02,32,16.50
2021,06,26,02,33,16.50
2021,06,26,02,34,16.40
2021,06,26,02,35,16.50
2021,06,26,02,36,16.50
2021,06,26,02,37,16.40
2021,06,26,02,38,16.40
2021,06,26,02,39,16.40
2021,06,26,02,40,16.50
2021,06,26,02,41,16.40
2021,06,26,02,42,16.40
2021,06,26,02,43,16.40
2021,06,26,02,44,16.40
2021,06,26,02,45,16.40
2021,06,26,02,46,16.40
2021,06,26,02,47,16.40
2021,06,26,02,48,16.40
2021,06,26,02,49,16.40
2021,06,26,02,50,16.40
2021,06,26,02,51,16.40
2021,06,26,02,52,16.40
2021,06,26,02,53,16.40
2021,06,26,02,54,16.40
2021,06,26,02,55,16.40
2021,06,26,02,56,16.40
2021,06,26,02,57,16.40
2021,06,26,02,58,16.40
2021,06,26,02,59,16.40
2021,06,26,03,00,16.40
2021,06,26,03,01,16.40
2021,06,26,03,02,16.40
2021,06,26,03,03,16.40
2021,06,26,03,04,16.40
2021,06,26,03,05,16.40
2021,06,26,03,06,16.40
2021,06,26,03,07,16.40
2021,06,26,03,08,16.40
2021,06,26,03,09,16.40
2021,06,26,03,10,16.40
2021,06,26,03,11,16.40
2021,06,26,03,12,16.40
2021,06,26,03,13,16.40
2021,06,26,03,14,16.40
2021,06,26,03,15,16.40
2021,06,26,03,16,16.40
2021,06,26,03,17,16.40
2021,06,26,03,18,16.50
2021,06,26,03,19,16.40
2021,06,26,03,20,16.40
2021,06,26,03,21,16.40
2021,06,26,03,22,16.40
2021,06,26,03,23,16.40
2021,06,26,03,24,16.40
2021,06,26,03,25,16.40
2021,06,26,03,26,16.40
2021,06,26,03,27,16.40
2021,06,26,03,28,16.40
2021,06,26,03,29,16.40
2021,06,26,03,30,16.40
2021,06,26,03,31,16.40
2021,06,26,03,32,16.40
2021,06,26,03,33,16.40
2021,06,26,03,34,16.40
2021,06,26,03,35,16.40
2021,06,26,03,36,16.40
2021,06,26,03,37,16.40
2021,06,26,03,38,16.40
2021,06,26,03,39,16.40
2021,06,26,03,40,16.40
2021,06,26,03,41,16.40
2021,06,26,03,42,16.40
2021,06,26,03,43,16.40
2021,06,26,03,44,16.40
2021,06,26,03,45,16.40
2021,06,26,03,46,16.40
2021,06,26,03,47,16.40
2021,06,26,03,48,16.40
2021,06,26,03,49,16.40
2021,06,26,03,50,16.40
2021,06,26,03,51,16.40
2021,06,26,03,52,16.40
2021,06,26,03,53,16.40
2021,06,26,03,54,16.50
2021,06,26,03,55,16.50
2021,06,26,03,56,16.50
2021,06,26,03,57,16.50
2021,06,26,03,58,16.50
2021,06,26,03,59,16.50
2021,06,26,04,00,16.50
2021,06,26,04,01,16.50
2021,06,26,04,02,16.50
2021,06,26,04,03,16.50
2021,06,26,04,04,16.50
2021,06,26,04,05,16.50
2021,06,26,04,06,16.60
2021,06,26,04,07,16.60
2021,06,26,04,08,16.60
2021,06,26,04,09,16.60
2021,06,26,04,10,16.60
2021,06,26,04,11,16.60
2021,06,26,04,12,16.60
2021,06,26,04,13,16.60
2021,06,26,04,14,16.60
2021,06,26,04,15,16.70
2021,06,26,04,16,16.70
2021,06,26,04,17,16.70
2021,06,26,04,18,16.70
2021,06,26,04,19,16.70
2021,06,26,04,20,16.70
2021,06,26,04,21,16.70
2021,06,26,04,22,16.70
2021,06,26,04,23,16.80
2021,06,26,04,24,16.80
2021,06,26,04,25,16.80
2021,06,26,04,26,16.80
2021,06,26,04,27,16.80
2021,06,26,04,28,16.80
2021,06,26,04,29,16.80
2021,06,26,04,30,16.80
2021,06,26,04,31,16.90
2021,06,26,04,32,16.90
2021,06,26,04,33,16.90
2021,06,26,04,34,16.90
2021,06,26,04,35,16.90
2021,06,26,04,36,16.90
2021,06,26,04,37,16.90
2021,06,26,04,38,16.90
2021,06,26,04,39,16.90
2021,06,26,04,40,16.90
2021,06,26,04,41,16.90
2021,06,26,04,42,17.00
2021,06,26,04,43,17.00
2021,06,26,04,44,17.00
2021,06,26,04,45,17.00
2021,06,26,04,46,17.00
2021,06,26,04,47,17.00
2021,06,26,04,48,17.00
2021,06,26,04,49,17.00
2021,06,26,04,50,17.10
2021,06,26,04,51,17.10
2021,06,26,04,52,17.10
2021,06,26,04,53,17.10
2021,06,26,04,54,17.10
2021,06,26,04,55,17.10
2021,06,26,04,56,17.10
2021,06,26,04,57,17.10
2021,06,26,04,58,17.10
2021,06,26,04,59,17.00
2021,06,26,05,00,17.00
2021,06,26,05,01,17.00
2021,06,26,05,02,17.00
2021,06,26,05,03,17.00
2021,06,26,05,04,17.00
2021,06,26,05,05,16.90
2021,06,26,05,06,16.90
2021,06,26,05,07,16.90
2021,06,26,05,08,16.90
2021,06,26,05,09,16.90
2021,06,26,05,10,16.80
2021,06,26,05,11,16.80
2021,06,26,05,12,16.80
2021,06,26,05,13,16.80
2021,06,26,05,14,16.80
2021,06,26,05,15,16.80
2021,06,26,05,16,16.80
2021,06,26,05,17,16.70
2021,06,26,05,18,16.70
2021,06,26,05,19,16.70
2021,06,26,05,20,16.70
2021,06,26,05,21,16.70
2021,06,26,05,22,16.60
2021,06,26,05,23,16.60
2021,06,26,05,24,16.60
2021,06,26,05,25,16.60
2021,06,26,05,26,16.60
2021,06,26,05,27,16.50
2021,06,26,05,28,16.50
2021,06,26,05,29,16.50
2021,06,26,05,30,16.50
2021,06,26,05,31,16.50
2021,06,26,05,32,16.40
2021,06,26,05,33,16.40
2021,06,26,05,34,16.40
2021,06,26,05,35,16.40
2021,06,26,05,36,16.40
2021,06,26,05,37,16.40
2021,06,26,05,38,16.40
2021,06,26,05,39,16.40
2021,06,26,05,40,16.40
2021,06,26,05,41,16.40
2021,06,26,05,42,16.30
2021,06,26,05,43,16.30
2021,06,26,05,44,16.30
2021,06,26,05,45,16.30
2021,06,26,05,46,16.40
2021,06,26,05,47,16.30
2021,06,26,05,48,16.30
2021,06,26,05,49,16.40
2021,06,26,05,50,16.40
2021,06,26,05,51,16.40
2021,06,26,05,52,16.40
2021,06,26,05,53,16.40
2021,06,26,05,54,16.40
2021,06,26,05,55,16.40
2021,06,26,05,56,16.50
2021,06,26,05,57,16.60
2021,06,26,05,58,16.60
2021,06,26,05,59,16.70
2021,06,26,06,00,16.80
2021,06,26,06,01,16.80
2021,06,26,06,02,16.90
2021,06,26,06,03,16.90
2021,06,26,06,04,17.00
2021,06,26,06,05,17.10
2021,06,26,06,06,17.10
2021,06,26,06,07,17.20
2021,06,26,06,08,17.30
2021,06,26,06,09,17.30
2021,06,26,06,10,17.40
2021,06,26,06,11,17.50
2021,06,26,06,12,17.50
2021,06,26,06,13,17.60
2021,06,26,06,14,17.60
2021,06,26,06,15,17.70
2021,06,26,06,16,17.80
2021,06,26,06,17,17.80
2021,06,26,06,18,17.90
2021,06,26,06,19,17.90
2021,06,26,06,20,18.00
2021,06,26,06,21,18.10
2021,06,26,06,22,18.20
2021,06,26,06,23,18.30
2021,06,26,06,24,18.40
2021,06,26,06,25,18.40
2021,06,26,06,26,18.50
2021,06,26,06,27,18.60
2021,06,26,06,28,18.60
2021,06,26,06,29,18.80
2021,06,26,06,30,18.90
2021,06,26,06,31,19.00
2021,06,26,06,32,19.10
2021,06,26,06,33,19.10
2021,06,26,06,34,19.20
2021,06,26,06,35,19.30
2021,06,26,06,36,19.30
2021,06,26,06,37,19.40
2021,06,26,06,38,19.50
2021,06,26,06,39,19.60
2021,06,26,06,40,19.60
2021,06,26,06,41,19.70
2021,06,26,06,42,19.70
2021,06,26,06,43,19.70
2021,06,26,06,44,19.80
2021,06,26,06,45,19.80
2021,06,26,06,46,19.90
2021,06,26,06,47,19.90
2021,06,26,06,48,20.00
2021,06,26,06,49,20.00
2021,06,26,06,50,20.10
2021,06,26,06,51,20.10
2021,06,26,06,52,20.20
2021,06,26,06,53,20.20
2021,06,26,06,54,20.30
2021,06,26,06,55,20.30
2021,06,26,06,56,20.30
2021,06,26,06,57,20.40
2021,06,26,06,58,20.40
2021,06,26,06,59,20.50
2021,06,26,07,00,20.50
2021,06,26,07,01,20.60
2021,06,26,07,02,20.60
2021,06,26,07,03,20.70
2021,06,26,07,04,20.70
2021,06,26,07,05,20.80
2021,06,26,07,06,20.80
2021,06,26,07,07,20.80
2021,06,26,07,08,20.80
2021,06,26,07,09,20.90
2021,06,26,07,10,20.90
2021,06,26,07,11,20.90
2021,06,26,07,12,20.90
2021,06,26,07,13,21.00
2021,06,26,07,14,21.00
2021,06,26,07,15,21.00
2021,06,26,07,16,21.10
2021,06,26,07,17,21.10
2021,06,26,07,18,21.10
2021,06,26,07,19,21.10
2021,06,26,07,20,21.10
2021,06,26,07,21,21.20
2021,06,26,07,22,21.20
2021,06,26,07,23,21.20
2021,06,26,07,24,21.20
2021,06,26,07,25,21.20
2021,06,26,07,26,21.30
2021,06,26,07,27,21.30
2021,06,26,07,28,21.30
2021,06,26,07,29,21.30
2021,06,26,07,30,21.30
2021,06,26,07,31,21.30
2021,06,26,07,32,21.30
2021,06,26,07,33,21.30
2021,06,26,07,34,21.30
2021,06,26,07,35,21.40
2021,06,26,07,36,21.40
2021,06,26,07,37,21.40
2021,06,26,07,38,21.40
2021,06,26,07,39,21.40
2021,06,26,07,40,21.40
2021,06,26,07,41,21.40
2021,06,26,07,42,21.50
2021,06,26,07,43,21.50
2021,06,26,07,44,21.50
2021,06,26,07,45,21.60
2021,06,26,07,46,21.60
2021,06,26,07,47,21.60
2021,06,26,07,48,21.60
2021,06,26,07,49,21.60
2021,06,26,07,50,21.70
2021,06,26,07,51,21.70
2021,06,26,07,52,21.70
2021,06,26,07,53,21.70
2021,06,26,07,54,21.70
2021,06,26,07,55,21.70
2021,06,26,07,56,21.70
2021,06,26,07,57,21.70
2021,06,26,07,58,21.70
2021,06,26,07,59,21.80
2021,06,26,08,00,21.80
2021,06,26,08,01,21.80
2021,06,26,08,02,21.80
2021,06,26,08,03,21.70
2021,06,26,08,04,21.70
2021,06,26,08,05,21.70
2021,06,26,08,06,21.70
2021,06,26,08,07,21.70
2021,06,26,08,08,21.70
2021,06,26,08,09,21.70
2021,06,26,08,10,21.70
2021,06,26,08,11,21.80
2021,06,26,08,12,21.80
2021,06,26,08,13,21.80
2021,06,26,08,14,21.80
2021,06,26,08,15,21.80
2021,06,26,08,16,21.80
2021,06,26,08,17,21.80
2021,06,26,08,18,21.90
2021,06,26,08,19,21.90
2021,06,26,08,20,21.90
2021,06,26,08,21,22.00
2021,06,26,08,22,22.10
2021,06,26,08,23,22.10
2021,06,26,08,24,22.10
2021,06,26,08,25,22.20
2021,06,26,08,26,22.20
2021,06,26,08,27,22.20
2021,06,26,08,28,22.30
2021,06,26,08,29,22.30
2021,06,26,08,30,22.30
2021,06,26,08,31,22.40
2021,06,26,08,32,22.40
2021,06,26,08,33,22.50
2021,06,26,08,34,22.50
2021,06,26,08,35,22.50
2021,06,26,08,36,22.60
2021,06,26,08,37,22.60
2021,06,26,08,38,22.70
2021,06,26,08,39,22.70
2021,06,26,08,40,22.70
2021,06,26,08,41,22.70
2021,06,26,08,42,22.80
2021,06,26,08,43,22.80
2021,06,26,08,44,22.80
2021,06,26,08,45,22.90
2021,06,26,08,46,22.90
2021,06,26,08,47,23.00
2021,06,26,08,48,23.00
2021,06,26,08,49,23.10
2021,06,26,08,50,23.20
2021,06,26,08,51,23.20
2021,06,26,08,52,23.30
2021,06,26,08,53,23.40
2021,06,26,08,54,23.40
2021,06,26,08,55,23.50
2021,06,26,08,56,23.60
2021,06,26,08,57,23.60
2021,06,26,08,58,23.70
2021,06,26,08,59,23.80
2021,06,26,09,00,23.80
2021,06,26,09,01,23.90
2021,06,26,09,02,23.90
2021,06,26,09,03,24.00
2021,06,26,09,04,24.10
2021,06,26,09,05,24.10
2021,06,26,09,06,24.20
2021,06,26,09,07,24.20
2021,06,26,09,08,24.30
2021,06,26,09,09,24.40
2021,06,26,09,10,24.40
2021,06,26,09,11,24.50
2021,06,26,09,12,24.60
2021,06,26,09,13,24.60
2021,06,26,09,14,24.70
2021,06,26,09,15,24.80
2021,06,26,09,16,24.80
2021,06,26,09,17,24.90
2021,06,26,09,18,25.00
2021,06,26,09,19,25.10
2021,06,26,09,20,25.20
2021,06,26,09,21,25.20
2021,06,26,09,22,25.30
2021,06,26,09,23,25.40
2021,06,26,09,24,25.50
2021,06,26,09,25,25.50
2021,06,26,09,26,25.60
2021,06,26,09,27,25.70
2021,06,26,09,28,25.80
2021,06,26,09,29,25.90
2021,06,26,09,30,26.00
2021,06,26,09,31,26.10
2021,06,26,09,32,26.10
2021,06,26,09,33,26.20
2021,06,26,09,34,26.30
2021,06,26,09,35,26.30
2021,06,26,09,36,26.30
2021,06,26,09,37,26.30
2021,06,26,09,38,26.40
2021,06,26,09,39,26.40
2021,06,26,09,40,26.40
2021,06,26,09,41,26.50
2021,06,26,09,42,26.50
2021,06,26,09,43,26.60
2021,06,26,09,44,26.60
2021,06,26,09,45,26.60
2021,06,26,09,46,26.70
2021,06,26,09,47,26.70
2021,06,26,09,48,26.70
2021,06,26,09,49,26.70
2021,06,26,09,50,26.70
2021,06,26,09,51,26.80
2021,06,26,09,52,26.80
2021,06,26,09,53,26.80
2021,06,26,09,54,26.80
2021,06,26,09,55,26.90
2021,06,26,09,56,26.90
2021,06,26,09,57,26.90
2021,06,26,09,58,27.00
2021,06,26,09,59,27.00
2021,06,26,10,00,27.10
2021,06,26,10,01,27.10
2021,06,26,10,02,27.10
2021,06,26,10,03,27.20
2021,06,26,10,04,27.20
2021,06,26,10,05,27.30
2021,06,26,10,06,27.30
2021,06,26,10,07,27.30
2021,06,26,10,08,27.40
2021,06,26,10,09,27.40
2021,06,26,10,10,27.50
2021,06,26,10,11,27.50
2021,06,26,10,12,27.60
2021,06,26,10,13,27.60
2021,06,26,10,14,27.60
2021,06,26,10,15,27.70
2021,06,26,10,16,27.70
2021,06,26,10,17,27.80
2021,06,26,10,18,27.80
2021,06,26,10,19,27.80
2021,06,26,10,20,27.80
2021,06,26,10,21,27.80
2021,06,26,10,22,27.90
2021,06,26,10,23,27.90
2021,06,26,10,24,27.90
2021,06,26,10,25,28.00
2021,06,26,10,26,28.00
2021,06,26,10,27,28.10
2021,06,26,10,28,28.20
2021,06,26,10,29,28.20
2021,06,26,10,30,28.30
2021,06,26,10,31,28.30
2021,06,26,10,32,28.30
2021,06,26,10,33,28.30
2021,06,26,10,34,28.40
2021,06,26,10,35,28.40
2021,06,26,10,36,28.40
2021,06,26,10,37,28.30
2021,06,26,10,38,28.30
2021,06,26,10,39,28.30
2021,06,26,10,40,28.30
2021,06,26,10,41,28.30
2021,06,26,10,42,28.30
2021,06,26,10,43,28.30
2021,06,26,10,44,28.30
2021,06,26,10,45,28.40
2021,06,26,10,46,28.40
2021,06,26,10,47,28.50
2021,06,26,10,48,28.50
2021,06,26,10,49,28.60
2021,06,26,10,50,28.70
2021,06,26,10,51,28.70
2021,06,26,10,52,28.80
2021,06,26,10,53,28.80
2021,06,26,10,54,28.80
2021,06,26,10,55,28.80
2021,06,26,10,56,28.90
2021,06,26,10,57,28.90
2021,06,26,10,58,28.90
2021,06,26,10,59,29.00
2021,06,26,11,00,29.10
2021,06,26,11,01,29.10
2021,06,26,11,02,29.10
2021,06,26,11,03,29.20
2021,06,26,11,04,29.20
2021,06,26,11,05,29.20
2021,06,26,11,06,29.30
2021,06,26,11,07,29.30
2021,06,26,11,08,29.30
2021,06,26,11,09,29.30
2021,06,26,11,10,29.40
2021,06,26,11,11,29.40
2021,06,26,11,12,29.40
2021,06,26,11,13,29.40
2021,06,26,11,14,29.40
2021,06,26,11,15,29.40
2021,06,26,11,16,29.30
2021,06,26,11,17,29.30
2021,06,26,11,18,29.30
2021,06,26,11,19,29.30
2021,06,26,11,20,29.30
2021,06,26,11,21,29.30
2021,06,26,11,22,29.30
2021,06,26,11,23,29.30
2021,06,26,11,24,29.30
2021,06,26,11,25,29.40
2021,06,26,11,26,29.40
2021,06,26,11,27,29.50
2021,06,26,11,28,29.50
2021,06,26,11,29,29.60
2021,06,26,11,30,29.70
2021,06,26,11,31,29.70
2021,06,26,11,32,29.80
2021,06,26,11,33,29.90
2021,06,26,11,34,29.90
2021,06,26,11,35,30.00
2021,06,26,11,36,30.10
2021,06,26,11,37,30.10
2021,06,26,11,38,30.20
2021,06,26,11,39,30.20
2021,06,26,11,40,30.30
2021,06,26,11,41,30.30
2021,06,26,11,42,30.30
2021,06,26,11,43,30.40
2021,06,26,11,44,30.40
2021,06,26,11,45,30.40
2021,06,26,11,46,30.40
2021,06,26,11,47,30.40
2021,06,26,11,48,30.50
2021,06,26,11,49,30.50
2021,06,26,11,50,30.50
2021,06,26,11,51,30.50
2021,06,26,11,52,30.50
2021,06,26,11,53,30.60
2021,06,26,11,54,30.60
2021,06,26,11,55,30.60
2021,06,26,11,56,30.60
2021,06,26,11,57,30.60
2021,06,26,11,58,30.60
2021,06,26,11,59,30.60
2021,06,26,12,00,30.60
2021,06,26,12,01,30.60
2021,06,26,12,02,30.60
2021,06,26,12,03,30.60
2021,06,26,12,04,30.60
2021,06,26,12,05,30.60
2021,06,26,12,06,30.60
2021,06,26,12,07,30.60
2021,06,26,12,08,30.50
2021,06,26,12,09,30.50
2021,06,26,12,10,30.60
2021,06,26,12,11,30.60
2021,06,26,12,12,30.60
2021,06,26,12,13,30.70
2021,06,26,12,14,30.70
2021,06,26,12,15,30.80
2021,06,26,12,16,30.90
2021,06,26,12,17,31.00
2021,06,26,12,18,31.00
2021,06,26,12,19,31.00
2021,06,26,12,20,31.00
2021,06,26,12,21,31.00
2021,06,26,12,22,31.00
2021,06,26,12,23,31.00
2021,06,26,12,24,31.00
2021,06,26,12,25,31.00
2021,06,26,12,26,31.10
2021,06,26,12,27,31.20
2021,06,26,12,28,31.20
2021,06,26,12,29,31.30
2021,06,26,12,30,31.40
2021,06,26,12,31,31.40
2021,06,26,12,32,31.50
2021,06,26,12,33,31.60
2021,06,26,12,34,31.70
2021,06,26,12,35,31.70
2021,06,26,12,36,31.80
2021,06,26,12,37,31.80
2021,06,26,12,38,31.80
2021,06,26,12,39,31.90
2021,06,26,12,40,31.90
2021,06,26,12,41,32.00
2021,06,26,12,42,32.10
2021,06,26,12,43,32.10
2021,06,26,12,44,32.10
2021,06,26,12,45,32.10
2021,06,26,12,46,32.10
2021,06,26,12,47,32.10
2021,06,26,12,48,32.20
2021,06,26,12,49,32.20
2021,06,26,12,50,32.30
2021,06,26,12,51,32.40
2021,06,26,12,52,32.40
2021,06,26,12,53,32.50
2021,06,26,12,54,32.50
2021,06,26,12,55,32.50
2021,06,26,12,56,32.60
2021,06,26,12,57,32.60
2021,06,26,12,58,32.60
2021,06,26,12,59,32.60
2021,06,26,13,00,32.60
2021,06,26,13,01,32.60
2021,06,26,13,02,32.60
2021,06,26,13,03,32.50
2021,06,26,13,04,32.40
2021,06,26,13,05,32.40
2021,06,26,13,06,32.30
2021,06,26,13,07,32.20
2021,06,26,13,08,32.20
2021,06,26,13,09,32.10
2021,06,26,13,10,32.10
2021,06,26,13,11,31.90
2021,06,26,13,12,31.90
2021,06,26,13,13,31.80
2021,06,26,13,14,31.80
2021,06,26,13,15,31.90
2021,06,26,13,16,31.80
2021,06,26,13,17,31.90
2021,06,26,13,18,31.90
2021,06,26,13,19,31.90
2021,06,26,13,20,32.00
2021,06,26,13,21,32.10
2021,06,26,13,22,32.10
2021,06,26,13,23,32.20
2021,06,26,13,24,32.30
2021,06,26,13,25,32.40
2021,06,26,13,26,32.50
2021,06,26,13,27,32.50
2021,06,26,13,28,32.60
2021,06,26,13,29,32.60
2021,06,26,13,30,32.60
2021,06,26,13,31,32.60
2021,06,26,13,32,32.50
2021,06,26,13,33,32.50
2021,06,26,13,34,32.40
2021,06,26,13,35,32.40
2021,06,26,13,36,32.40
2021,06,26,13,37,32.50
2021,06,26,13,38,32.50
2021,06,26,13,39,32.60
2021,06,26,13,40,32.60
2021,06,26,13,41,32.70
2021,06,26,13,42,32.70
2021,06,26,13,43,32.60
2021,06,26,13,44,32.60
2021,06,26,13,45,32.50
2021,06,26,13,46,32.50
2021,06,26,13,47,32.50
2021,06,26,13,48,32.40
2021,06,26,13,49,32.40
2021,06,26,13,50,32.40
2021,06,26,13,51,32.40
2021,06,26,13,52,32.40
2021,06,26,13,53,32.40
2021,06,26,13,54,32.40
2021,06,26,13,55,32.40
2021,06,26,13,56,32.40
2021,06,26,13,57,32.40
2021,06,26,13,58,32.40
2021,06,26,13,59,32.50
2021,06,26,14,00,32.50
2021,06,26,14,01,32.50
2021,06,26,14,02,32.60
2021,06,26,14,03,32.70
2021,06,26,14,04,32.70
2021,06,26,14,05,32.80
2021,06,26,14,06,32.80
2021,06,26,14,07,32.80
2021,06,26,14,08,32.90
2021,06,26,14,09,33.00
2021,06,26,14,10,33.10
2021,06,26,14,11,33.10
2021,06,26,14,12,33.10
2021,06,26,14,13,33.10
2021,06,26,14,14,33.10
2021,06,26,14,15,33.00
2021,06,26,14,16,33.00
2021,06,26,14,17,33.10
2021,06,26,14,18,33.10
2021,06,26,14,19,33.10
2021,06,26,14,20,33.10
2021,06,26,14,21,33.00
2021,06,26,14,22,33.00
2021,06,26,14,23,33.00
2021,06,26,14,24,32.90
2021,06,26,14,25,32.80
2021,06,26,14,26,32.80
2021,06,26,14,27,32.70
2021,06,26,14,28,32.70
2021,06,26,14,29,32.70
2021,06,26,14,30,32.60
2021,06,26,14,31,32.60
2021,06,26,14,32,32.70
2021,06,26,14,33,32.70
2021,06,26,14,34,32.70
2021,06,26,14,35,32.70
2021,06,26,14,36,32.80
2021,06,26,14,37,32.80
2021,06,26,14,38,32.90
2021,06,26,14,39,33.00
2021,06,26,14,40,33.00
2021,06,26,14,41,33.00
2021,06,26,14,42,33.00
2021,06,26,14,43,33.00
2021,06,26,14,44,33.00
2021,06,26,14,45,33.00
2021,06,26,14,46,33.00
2021,06,26,14,47,33.00
2021,06,26,14,48,33.10
2021,06,26,14,49,33.10
2021,06,26,14,50,33.20
2021,06,26,14,51,33.20
2021,06,26,14,52,33.30
2021,06,26,14,53,33.40
2021,06,26,14,54,33.50
2021,06,26,14,55,33.60
2021,06,26,14,56,33.70
2021,06,26,14,57,33.80
2021,06,26,14,58,33.80
2021,06,26,14,59,33.90
2021,06,26,15,00,34.00
2021,06,26,15,01,34.10
2021,06,26,15,02,34.20
2021,06,26,15,03,34.30
2021,06,26,15,04,34.30
2021,06,26,15,05,34.40
2021,06,26,15,06,34.50
2021,06,26,15,07,34.50
2021,06,26,15,08,34.60
2021,06,26,15,09,34.60
2021,06,26,15,10,34.60
2021,06,26,15,11,34.60
2021,06,26,15,12,34.50
2021,06,26,15,13,34.50
2021,06,26,15,14,34.40
2021,06,26,15,15,34.30
2021,06,26,15,16,34.20
2021,06,26,15,17,34.10
2021,06,26,15,18,34.10
2021,06,26,15,19,34.10
2021,06,26,15,20,34.10
2021,06,26,15,21,34.10
2021,06,26,15,22,34.10
2021,06,26,15,23,34.10
2021,06,26,15,24,34.10
2021,06,26,15,25,34.10
2021,06,26,15,26,34.10
2021,06,26,15,27,34.10
2021,06,26,15,28,34.10
2021,06,26,15,29,34.00
2021,06,26,15,30,34.00
2021,06,26,15,31,34.00
2021,06,26,15,32,34.00
2021,06,26,15,33,34.00
2021,06,26,15,34,34.00
2021,06,26,15,35,34.00
2021,06,26,15,36,34.00
2021,06,26,15,37,34.00
2021,06,26,15,38,34.00
2021,06,26,15,39,34.00
2021,06,26,15,40,34.00
2021,06,26,15,41,34.10
2021,06,26,15,42,34.10
2021,06,26,15,43,34.10
2021,06,26,15,44,34.10
2021,06,26,15,45,34.20
2021,06,26,15,46,34.20
2021,06,26,15,47,34.20
2021,06,26,15,48,34.20
2021,06,26,15,49,34.30
2021,06,26,15,50,34.30
2021,06,26,15,51,34.30
2021,06,26,15,52,34.30
2021,06,26,15,53,34.30
2021,06,26,15,54,34.30
2021,06,26,15,55,34.30
2021,06,26,15,56,34.30
2021,06,26,15,57,34.30
2021,06,26,15,58,34.40
2021,06,26,15,59,34.40
2021,06,26,16,00,34.40
2021,06,26,16,01,34.40
2021,06,26,16,02,34.40
2021,06,26,16,03,34.40
2021,06,26,16,04,34.40
2021,06,26,16,05,34.50
2021,06,26,16,06,34.50
2021,06,26,16,07,34.50
2021,06,26,16,08,34.50
2021,06,26,16,09,34.50
2021,06,26,16,10,34.50
2021,06,26,16,11,34.50
2021,06,26,16,12,34.60
2021,06,26,16,13,34.60
2021,06,26,16,14,34.60
2021,06,26,16,15,34.70
2021,06,26,16,16,34.70
2021,06,26,16,17,34.70
2021,06,26,16,18,34.70
2021,06,26,16,19,34.80
2021,06,26,16,20,34.80
2021,06,26,16,21,34.80
2021,06,26,16,22,34.80
2021,06,26,16,23,34.80
2021,06,26,16,24,34.80
2021,06,26,16,25,34.80
2021,06,26,16,26,34.80
2021,06,26,16,27,34.80
2021,06,26,16,28,34.90
2021,06,26,16,29,34.90
2021,06,26,16,30,34.90
2021,06,26,16,31,34.90
2021,06,26,16,32,34.90
2021,06,26,16,33,34.90
2021,06,26,16,34,34.90
2021,06,26,16,35,34.90
2021,06,26,16,36,34.90
2021,06,26,16,37,34.90
2021,06,26,16,38,35.00
2021,06,26,16,39,35.00
2021,06,26,16,40,35.00
2021,06,26,16,41,34.90
2021,06,26,16,42,34.90
2021,06,26,16,43,34.90
2021,06,26,16,44,35.00
2021,06,26,16,45,35.00
2021,06,26,16,46,35.10
2021,06,26,16,47,35.10
2021,06,26,16,48,35.10
2021,06,26,16,49,35.10
2021,06,26,16,50,35.10
2021,06,26,16,51,35.10
2021,06,26,16,52,35.10
2021,06,26,16,53,35.10
2021,06,26,16,54,35.10
2021,06,26,16,55,35.10
2021,06,26,16,56,35.10
2021,06,26,16,57,35.10
2021,06,26,16,58,35.10
2021,06,26,16,59,35.10
2021,06,26,17,00,35.10
2021,06,26,17,01,35.10
2021,06,26,17,02,35.10
2021,06,26,17,03,35.10
2021,06,26,17,04,35.10
2021,06,26,17,05,35.20
2021,06,26,17,06,35.20
2021,06,26,17,07,35.20
2021,06,26,17,08,35.20
2021,06,26,17,09,35.20
2021,06,26,17,10,35.20
2021,06,26,17,11,35.20
2021,06,26,17,12,35.20
2021,06,26,17,13,35.20
2021,06,26,17,14,35.20
2021,06,26,17,15,35.20
2021,06,26,17,16,35.30
2021,06,26,17,17,35.30
2021,06,26,17,18,35.30
2021,06,26,17,19,35.30